Weather observations for the past three days for
Beaufort, Marine Corps Air Station
Imperial (Metric)
Date Time (edt) Wind (mph) Vis. (mi.) Weather Sky Cond. Temperature (ºF) Relative Humidity Wind Chill (°F) Heat Index (°F) Pressure Precipitation (in)
Air Dwpt 6 hour altimeter (in) sea level (mb) 1 hr 3 hr 6 hr
Max. Min.
20 19:56 S 5 2.50 Thunderstorm Rain Fog/Mist BKN090 OVC110 77 75 96.1 73.9 94% 78 30.11 1019.7 0.07 0.72
20 18:56 Vrbl 3 2.50 Thunderstorm Heavy Rain Fog/Mist BKN049 OVC070 75.9 73 91% 76 30.11 1019.5 0.65
20 17:56 E 6 10.00 Thunderstorm BKN032 OVC041 82.9 71.1 67% 88 30.1 1019.3
20 16:56 S 8 10.00 Thunderstorm CLR 91.9 77 62% 106 30.06 1017.8
20 15:56 S 8 G 17 10.00 Thunderstorm FEW032 93.9 79 62% 112 30.06 1018.1
20 14:56 S 6 10.00 Fair CLR 95 79 60% 113 30.09 1019.0
20 13:56 S 7 10.00 A Few Clouds FEW028 93 78.1 93 78.1 62% 109 30.11 1019.5
20 12:56 Calm 10.00 Mostly Cloudy BKN026 89.1 77 68% 102 30.13 1020.3
20 11:56 Calm 10.00 Fair CLR 87.1 75.9 70% 98 30.14 1020.7
20 10:56 SW 9 10.00 Fair CLR 86 75 70% 95 30.14 1020.8
20 09:56 W 7 10.00 Fair CLR 84 73.9 72% 91 30.15 1020.9
20 08:56 W 6 10.00 Partly Cloudy SCT031 SCT044 80.1 73.9 82% 85 30.14 1020.6
20 07:56 Vrbl 3 10.00 Fair CLR 78.1 75 78.1 75 90% 81 30.13 1020.2
20 06:56 Calm 10.00 Fair CLR 75.9 73.9 94% 75 30.11 1019.7
20 05:56 Calm 3.00 Fog/Mist FEW010 SCT030 75 73.9 96% 73 30.11 1019.5
20 04:56 Calm 6.00 Fog/Mist CLR 75.9 73.9 94% 75 30.09 1019.0
20 03:56 Calm 9.00 Fair CLR 75.9 73.9 94% 75 30.08 1018.5
20 02:56 Calm 10.00 Fair CLR 77 75 94% 78 30.08 1018.5
20 01:56 Calm 10.00 Fair CLR 75.9 73.9 77 75.9 94% 75 30.09 1018.9 0.15
20 00:56 Calm 10.00 Fair CLR 77 75 94% 78 30.09 1018.9
19 23:56 SW 5 10.00 Fair CLR 77 75 94% 78 30.1 1019.4
19 22:56 Calm 10.00 Fair CLR 77 75 94% 78 30.1 1019.4 0.01 0.15
19 21:56 S 3 9.00 Light Rain SCT120 77 75 94% 78 30.1 1019.3 0.06
19 20:56 S 7 6.00 Light Rain Fog/Mist OVC110 77 75 94% 78 30.11 1019.5 0.08
19 19:56 SW 6 7.00 Light Rain BKN110 77 73.9 95 73.9 90% 78 30.09 1019.0 0.09 1.31
19 18:56 SW 6 4.00 Thunderstorm Rain Fog/Mist OVC110 77 73.9 90% 78 30.08 1018.5 0.04
19 17:56 S 7 0.25 Thunderstorm Light Rain Fog SCT024CB BKN037 BKN100 75 73 94% 73 30.08 1018.5 0.2
19 16:56 SW 16 G 22 0.25 Thunderstorm Heavy Rain Fog SCT024CB BKN037 BKN100 75 71.1 88% 75 30.05 1017.8 0.97 0.98
19 15:56 E 9 7.00 Thunderstorm BKN041CB BKN120 82.9 75.9 79% 91 30.04 1017.3 0.01
19 14:56 NW 6 7.00 Thunderstorm Light Rain BKN047CB BKN150 86 78.1 77% 98 30.05 1017.5
19 13:56 Vrbl 3 7.00 Thunderstorm SCT040CB BKN120 BKN250 93.9 75 93.9 80.1 54% 106 30.06 1018.1
19 12:56 W 6 7.00 Mostly Cloudy SCT041 BKN120 93.9 75 54% 106 30.08 1018.7
19 11:56 SW 6 7.00 Mostly Cloudy SCT029 BKN120 91 75 59% 102 30.09 1019.1
19 10:56 SW 6 7.00 Partly Cloudy SCT030 SCT200 91 77 64% 105 30.1 1019.2
19 09:56 SW 7 7.00 Partly Cloudy FEW040 SCT200 87.1 75 67% 97 30.09 1018.8
19 08:56 W 6 7.00 Partly Cloudy SCT040 SCT200 82.9 75 77% 90 30.08 1018.6
19 07:56 W 5 7.00 Mostly Cloudy FEW040 SCT150 BKN200 80.1 73.9 80.1 75 82% 85 30.07 1018.3
19 04:56 S 3 10.00 Fair CLR 77 73.9 90% 78 30.02 1016.6
19 03:56 Calm 10.00 Fair CLR 77 73.9 90% 78 30.02 1016.4
19 02:56 SW 6 10.00 Fair CLR 78.1 73.9 87% 81 30.03 1016.8
19 01:56 SW 6 10.00 Fair CLR 78.1 73 84.9 78.1 85% 81 30.03 1017.0
19 00:56 SW 5 10.00 Fair CLR 80.1 73.9 82% 85 30.05 1017.5
18 23:56 W 8 10.00 Fair CLR 81 72 74% 85 30.06 1018.0
18 22:56 SW 8 10.00 Fair CLR 82 72 72% 87 30.04 1017.2
18 21:56 SW 8 10.00 Mostly Cloudy BKN150 BKN200 82.9 72 70% 88 30.02 1016.6
18 20:56 S 8 G 17 10.00 Mostly Cloudy BKN150 BKN200 84 73 70% 90 30.02 1016.7
18 19:56 S 8 G 20 10.00 Mostly Cloudy FEW040 BKN150 BKN200 84.9 71.1 96.1 84.9 63% 90 29.99 1015.6
18 18:56 SW 13 G 23 10.00 Mostly Cloudy FEW040 BKN150 BKN200 87.1 71.1 59% 93 29.99 1015.5
18 17:56 SW 8 10.00 Mostly Cloudy FEW040 BKN150 BKN200 86 73.9 67% 94 29.97 1014.8
18 16:56 S 9 G 24 7.00 Mostly Cloudy FEW040 BKN150 BKN200 91 75.9 61% 103 29.97 1014.9
18 15:56 S 9 7.00 Mostly Cloudy SCT049 BKN120 BKN180 91 79 68% 108 30 1015.7
18 14:56 S 10 G 21 7.00 Mostly Cloudy SCT042 SCT150 BKN250 95 75.9 54% 108 30.01 1016.1
18 13:56 SW 10 G 17 7.00 Partly Cloudy SCT039 SCT120 93.9 77 95 79 58% 108 30.03 1017.0
18 12:56 SW 10 10.00 Partly Cloudy SCT045 SCT150 91.9 75.9 60% 104 30.05 1017.6
18 11:56 Vrbl 7 7.00 Partly Cloudy FEW045 SCT150 90 75.9 63% 102 30.06 1017.9
18 10:56 SW 7 7.00 Partly Cloudy FEW040 SCT150 84.9 75.9 75% 94 30.06 1018.0
18 09:56 W 8 7.00 Mostly Cloudy BKN200 82.9 73.9 74% 89 30.06 1018.1
18 08:56 W 7 7.00 Mostly Cloudy BKN200 81 73 77% 86 30.06 1018.0
18 07:56 SW 6 10.00 Mostly Cloudy BKN200 79 72 80.1 75.9 79% 82 30.06 1018.0
18 06:56 SW 6 7.00 Mostly Cloudy BKN200 78.1 73 85% 81 30.04 1017.3
18 05:56 SW 3 10.00 Fair CLR 77 73 88% 78 30.02 1016.7
18 04:56 W 6 10.00 Fair CLR 77 73 88% 78 30.02 1016.6
18 03:56 W 3 10.00 Mostly Cloudy BKN070 78.1 73 85% 81 30.02 1016.5
18 02:56 SW 5 10.00 Fair CLR 79 73 82% 82 30.01 1016.1
18 01:56 S 6 10.00 Fair CLR 80.1 73.9 84.9 79 82% 85 30.01 1016.1
18 00:56 S 3 10.00 Fair CLR 80.1 73.9 82% 85 30.01 1016.4
17 23:56 W 7 10.00 Fair CLR 81 73.9 79% 86 30.04 1017.2
17 22:56 SW 8 7.00 Mostly Cloudy BKN100 81 73.9 79% 86 30.05 1017.6
17 21:56 W 9 7.00 Mostly Cloudy SCT060 BKN100 82 73 74% 87 30.04 1017.2
17 20:56 SW 12 7.00 Mostly Cloudy SCT120 BKN150 82 75 79% 89 30.02 1016.5
Date Time (edt) Wind (mph) Vis. (mi.) Weather Sky Cond. Air Dwpt Max. Min. Relative Humidity Wind Chill (°F) Heat Index (°F) altimeter (in) sea level (mb) 1 hr 3 hr 6 hr
6 hour
Temperature (ºF) Pressure Precipitation (in)